Wind_Speed
101 100 99 98 97 97 97 97 96 97 97 97 97 97 97 97 96 96 96 96 96 96 97 97 96 96 95 94 94 93 93 93 93 92 92 93 93 93 93 93 93 92 92 91 91 90 90 90 89 89 89 89 89 89 88 88 87 86 86 84 83 82 80 79 77 75 73 70 68 66 64 62 61 60 59 58 57 57 56 56 55 55 55 55 55 55
102 101 100 99 99 98 98 98 98 97 98 98 98 98 98 97 97 96 96 95 95 96 96 97 97 97 97 97 97 96 96 96 96 96 95 95 95 95 95 95 95 94 94 94 94 93 93 93 93 93 93 93 92 92 91 91 90 88 87 86 84 83 81 78 76 74 71 69 66 63 61 60 58 57 56 55 55 54 53 53 52 52 52 52 52 52
102 102 102 101 101 100 100 100 100 99 99 99 99 99 99 98 98 97 97 96 96 96 97 97 98 99 99 99 99 99 99 99 99 98 98 98 97 97 97 96 96 96 96 96 96 96 96 96 96 96 96 96 95 94 93 92 91 89 88 86 85 82 80 78 75 72 69 67 64 61 59 58 56 55 54 53 52 51 50 50 49 49 49 49 49 49
102 102 102 102 102 102 101 101 101 101 101 101 101 100 100 100 99 99 99 98 98 98 98 99 100 100 101 101 102 102 102 102 101 101 101 100 100 99 99 99 99 99 99 99 99 99 99 99 99 99 98 98 97 96 94 93 91 90 88 86 84 82 79 76 73 70 68 65 62 60 58 56 54 52 51 50 49 48 48 47 46 46 46 46 46 46
105 105 105 104 104 104 104 104 103 103 103 103 103 103 102 102 102 102 101 101 101 101 101 101 102 102 103 103 104 104 104 104 104 104 103 103 102 102 102 101 101 101 102 102 102 102 102 102 101 101 100 99 98 96 95 93 91 89 87 85 83 80 78 75 72 69 66 63 61 58 56 54 52 51 49 48 47 46 45 44 44 43 43 43 43 43
108 108 108 108 108 108 108 107 107 107 107 107 106 106 106 105 105 105 105 105 105 104 104 104 105 105 105 106 106 107 107 107 106 106 106 106 105 105 105 104 104 104 104 104 104 104 104 103 103 102 101 99 98 96 94 93 91 89 87 84 82 79 76 73 70 67 65 62 59 57 55 53 51 49 48 47 46 45 44 43 42 41 41 41 41 40
111 111 111 111 111 111 111 111 111 111 111 111 110 110 110 109 109 108 108 108 108 108 108 108 108 108 108 108 109 109 109 109 109 109 109 108 108 108 107 107 107 107 106 106 106 105 105 104 103 102 101 99 98 96 94 92 90 88 86 83 81 78 75 72 69 66 64 61 58 56 54 52 50 49 47 46 45 44 43 42 41 40 39 39 39 38
113 113 113 113 113 114 113 113 113 114 114 114 114 113 113 112 112 111 111 111 111 111 111 111 111 111 111 111 111 112 112 111 111 111 111 111 110 110 109 109 108 108 108 107 107 106 105 104 103 102 101 99 97 95 93 91 89 87 85 82 80 77 74 71 68 65 63 60 58 56 53 51 50 48 47 46 45 44 43 41 40 40 39 39 38 38
116 116 115 115 115 115 115 115 115 115 115 115 115 115 115 114 114 113 113 113 112 112 112 112 112 112 113 113 113 113 113 113 113 113 112 112 112 111 111 110 109 109 108 108 107 106 105 104 103 102 100 98 97 95 93 91 88 86 84 81 78 76 73 70 67 65 62 60 58 55 53 51 50 48 47 46 45 44 43 42 41 40 39 39 38 38
118 118 117 117 116 116 116 116 116 115 115 116 116 116 115 115 115 114 114 114 113 112 112 112 113 113 113 113 113 114 114 114 114 113 113 113 112 112 111 110 109 109 108 107 107 106 105 104 102 101 99 98 96 94 92 90 88 85 83 80 78 75 72 70 67 65 62 60 58 55 54 52 50 49 48 47 46 45 44 43 42 41 40 40 39 39
119 118 118 117 117 116 116 116 116 116 115 116 116 116 115 115 115 115 114 114 113 112 112 111 111 112 112 112 113 113 114 114 114 114 113 113 112 111 110 110 109 108 107 107 106 105 104 103 102 100 99 97 95 93 91 89 87 85 82 80 77 75 72 70 67 65 62 60 58 56 54 52 51 50 49 48 47 46 45 44 43 42 42 41 40 40
119 118 117 117 117 116 116 116 116 115 115 116 116 116 116 115 114 114 114 113 112 112 111 111 110 110 110 111 111 112 113 114 114 114 113 112 111 110 110 109 108 107 106 105 105 104 103 102 101 100 98 96 95 93 91 89 87 84 82 80 77 75 72 70 67 65 63 61 59 57 55 53 52 51 50 49 48 48 47 46 45 44 43 43 42 42
119 118 118 118 117 117 117 117 116 116 116 116 116 117 116 116 115 114 114 113 112 111 111 110 110 110 109 109 109 110 111 112 113 113 113 112 111 110 109 108 107 106 105 104 103 103 102 101 100 99 98 96 94 92 91 89 87 85 82 80 78 76 73 71 68 66 64 62 60 58 56 55 53 52 51 51 50 49 48 47 46 46 45 44 44 44
120 119 119 119 119 118 118 118 118 118 118 117 117 117 117 116 116 115 115 115 114 112 111 110 110 110 109 108 108 109 109 110 111 112 112 112 111 110 109 108 107 106 104 104 103 102 101 100 100 99 97 96 94 93 91 89 87 85 83 81 79 77 74 72 70 67 65 63 61 60 58 56 55 54 53 52 52 51 50 49 48 47 47 46 46 45
122 122 121 121 121 120 120 120 120 120 120 119 119 119 118 118 118 117 117 116 115 114 113 112 111 110 109 108 108 108 108 109 110 111 112 112 112 110 109 109 107 106 104 103 103 102 101 100 99 98 97 96 94 93 91 90 88 86 84 82 80 78 76 74 71 69 67 65 63 62 60 59 57 56 55 55 54 53 52 51 50 49 49 48 48 47
126 125 125 124 124 123 123 122 122 123 123 122 122 121 121 121 121 120 119 119 118 116 115 114 113 112 111 110 109 109 109 109 110 110 111 112 112 111 110 109 108 106 105 104 103 102 101 100 99 98 97 96 95 94 92 91 89 87 85 84 82 80 78 76 74 72 70 68 66 64 62 61 60 59 58 57 56 55 54 53 52 52 51 50 50 49
129 128 128 127 127 126 126 125 125 125 125 125 125 125 124 124 124 123 122 121 120 119 118 117 116 115 114 112 111 110 110 110 110 111 111 112 113 112 111 110 109 108 106 104 103 102 101 101 100 99 98 97 96 95 93 92 90 89 87 85 83 82 80 78 76 74 72 70 69 67 65 64 62 61 60 59 59 58 57 56 55 54 53 52 52 51
130 130 130 130 129 129 128 128 128 128 128 128 128 127 127 127 126 126 125 124 123 122 121 119 118 117 116 115 114 113 112 112 113 112 112 113 113 113 112 111 111 109 107 106 104 103 102 102 101 100 99 98 97 96 95 93 92 90 89 87 85 84 82 80 78 76 75 73 71 70 68 67 65 64 63 62 61 60 59 58 57 56 55 55 54 53
131 131 130 130 130 130 129 129 129 130 130 130 129 129 129 128 128 128 128 127 126 125 124 122 121 120 119 118 117 116 115 115 115 115 115 115 115 114 113 113 112 111 109 108 106 105 104 103 103 102 101 100 99 98 97 95 94 92 91 89 87 86 84 82 81 79 77 76 74 72 71 70 68 67 66 65 64 63 62 61 60 59 58 57 56 56
130 130 130 130 130 130 130 130 130 130 130 130 130 130 130 129 129 129 129 129 128 128 126 125 124 123 121 121 120 119 118 118 119 119 118 117 116 116 115 115 115 113 112 110 109 107 106 106 105 104 103 102 101 100 99 97 96 94 93 91 90 88 86 85 83 82 80 78 77 75 74 72 71 70 69 68 67 66 65 64 63 62 61 60 59 58
129 129 128 128 128 128 129 129 128 128 129 129 129 129 129 129 128 128 129 129 129 129 128 128 127 125 123 122 122 121 121 121 122 122 121 120 118 118 117 117 117 116 115 113 111 110 109 108 107 106 106 105 104 102 101 100 98 97 95 94 92 90 89 87 86 84 83 81 79 78 76 75 74 73 72 70 69 68 67 66 65 64 63 62 62 61
127 126 125 124 124 125 125 125 125 125 125 126 126 127 127 126 126 126 126 127 128 128 128 128 128 126 125 124 124 124 123 124 125 125 124 122 121 120 118 118 118 118 117 116 114 112 111 111 110 109 108 107 106 105 103 102 100 99 97 96 94 93 91 90 88 87 85 84 82 80 79 78 76 75 74 73 72 71 70 69 68 67 66 65 64 63
123 122 121 120 120 120 120 120 120 120 120 121 122 122 123 122 122 122 122 123 124 125 126 126 126 126 125 126 126 125 125 126 126 126 126 125 124 122 120 119 119 120 120 119 117 115 114 113 113 112 111 110 108 107 106 104 103 101 100 98 97 95 94 92 91 89 88 86 84 83 81 80 79 78 76 75 74 73 72 71 70 69 68 67 66 65
119 118 117 116 116 115 115 115 115 115 115 115 116 116 117 117 117 117 117 118 119 120 121 122 123 124 125 125 126 126 126 126 126 127 127 127 125 123 121 120 121 122 122 121 119 118 117 116 116 115 114 112 111 109 108 106 105 104 102 101 99 98 96 94 93 91 90 88 87 85 84 82 81 80 79 78 76 75 74 73 72 71 70 69 68 68
116 115 114 113 112 111 111 110 110 109 109 109 110 110 111 111 112 112 112 112 113 114 115 117 118 120 121 122 124 125 125 125 125 126 127 127 126 124 122 121 122 123 123 122 121 120 119 119 118 117 116 115 113 111 110 109 107 106 104 103 101 100 98 97 95 94 92 91 89 88 86 85 83 82 81 80 78 77 76 75 74 73 72 71 70 70
112 112 110 110 109 108 107 106 106 105 105 105 105 106 106 106 106 107 107 107 108 108 109 111 112 114 115 117 119 121 122 123 124 125 126 126 125 124 122 121 122 123 124 123 122 122 122 122 121 120 119 117 115 113 112 110 109 108 106 105 103 102 100 99 97 96 94 93 91 90 88 87 85 84 83 82 80 79 78 77 76 75 74 73 72 71
109 108 107 107 106 105 104 103 103 102 102 102 101 102 102 102 102 103 103 103 103 103 104 105 106 108 109 111 114 116 118 119 121 121 122 122 123 123 122 121 121 123 124 124 123 123 123 123 123 122 120 119 117 115 113 112 111 109 108 107 105 104 102 101 100 98 97 95 94 92 91 89 88 86 85 84 82 81 80 79 78 76 76 75 74 73
106 105 104 103 103 102 101 100 100 99 99 99 98 98 98 99 99 99 99 99 99 99 100 100 101 102 104 106 108 110 112 115 116 117 118 119 120 120 119 119 120 121 123 123 123 123 124 124 124 123 122 120 118 116 115 113 112 111 110 109 107 106 105 103 102 100 99 97 96 94 93 91 90 88 87 86 84 83 82 80 79 78 77 76 75 74
102 101 100 100 99 98 97 97 96 96 96 95 95 95 95 95 96 96 96 95 96 96 96 97 97 98 98 100 102 104 107 110 112 113 114 115 116 116 116 116 118 120 121 122 123 123 124 125 125 124 123 121 119 117 116 115 114 113 112 111 109 108 107 105 104 102 101 99 98 96 95 93 92 90 89 88 86 85 84 82 81 80 79 78 77 76
98 97 96 95 94 94 93 92 92 92 92 92 92 92 92 92 93 93 93 93 93 93 93 93 93 94 94 96 98 100 103 105 107 108 110 111 112 112 111 113 115 117 119 120 122 123 124 125 125 124 123 122 120 118 117 116 115 114 113 112 111 110 109 107 106 104 103 101 100 98 96 95 94 92 91 89 88 87 85 84 83 81 80 79 78 77
94 93 92 91 90 89 89 88 88 88 88 88 88 88 89 89 89 90 90 90 90 90 90 90 90 90 91 93 95 97 99 101 103 104 105 107 107 107 107 109 110 112 114 117 119 121 122 123 123 123 123 122 121 119 118 117 116 115 115 114 113 112 110 109 108 106 104 103 101 100 98 97 95 94 92 91 90 89 87 86 84 83 82 81 80 79
90 90 89 88 87 86 85 84 83 83 83 83 84 84 85 85 85 86 86 87 87 87 87 87 87 88 89 90 92 94 95 97 98 99 101 102 103 103 103 104 105 107 109 112 114 117 119 120 121 121 121 121 121 120 118 117 117 116 116 115 114 113 112 111 109 108 106 104 103 101 100 98 97 95 94 93 91 90 89 87 86 85 83 82 81 81
87 86 85 85 84 82 81 80 80 79 79 79 80 80 81 81 82 82 83 83 84 84 84 84 85 85 86 87 89 90 91 93 94 95 97 98 99 99 99 99 101 102 104 106 109 112 114 117 118 119 120 120 120 119 118 118 117 117 116 116 115 114 113 112 110 109 107 106 104 102 101 99 98 97 96 94 93 92 90 89 88 86 85 84 83 82
83 83 82 81 80 79 78 77 76 76 75 75 76 76 76 77 77 78 79 79 80 80 81 81 81 82 83 84 85 87 88 89 90 91 93 95 96 96 95 96 96 98 100 102 104 107 110 112 114 116 118 119 119 119 118 118 118 118 117 116 116 115 114 113 111 110 109 107 105 104 102 101 99 98 97 96 95 93 92 91 89 88 87 86 85 84
80 79 79 78 77 76 75 74 73 73 72 72 72 72 73 73 74 74 75 75 76 76 77 78 78 79 80 81 82 83 84 85 86 88 89 91 93 93 92 92 93 94 96 98 100 103 105 108 110 112 115 116 117 118 118 118 118 118 117 117 116 116 115 113 112 111 110 108 107 105 104 102 101 100 99 98 96 95 94 93 91 90 89 88 87 86
76 76 75 74 73 73 72 71 70 70 69 69 69 69 69 70 70 70 71 72 72 73 73 74 74 75 76 77 78 80 81 82 83 85 86 88 89 90 90 90 89 90 92 94 96 98 100 103 105 107 110 113 115 116 117 117 117 117 118 117 117 116 115 114 113 112 111 110 108 107 105 104 103 101 100 99 98 97 96 95 93 92 91 90 89 88
73 72 71 71 70 69 69 68 68 67 67 66 66 66 66 66 67 67 68 68 68 69 70 70 71 72 73 74 75 76 77 79 80 82 83 85 86 86 87 87 86 86 88 90 91 93 96 98 100 103 107 110 113 115 116 116 116 117 118 118 117 116 115 114 113 112 112 111 110 108 107 105 104 103 102 101 100 99 98 96 95 94 93 92 91 90
69 69 68 67 67 66 65 65 65 64 64 64 64 63 64 64 64 64 64 65 65 66 66 67 68 68 69 70 72 73 74 76 77 79 80 81 82 83 83 83 83 83 84 86 88 90 92 94 97 100 103 106 109 111 113 114 116 117 118 117 117 116 115 114 113 112 112 112 111 109 108 107 106 104 103 102 101 100 100 98 97 96 94 93 92 91
66 65 65 64 64 63 63 62 62 62 62 61 61 61 61 61 61 61 62 62 62 63 63 64 65 65 66 67 68 70 71 73 74 75 77 78 78 79 80 80 80 80 81 83 85 87 89 92 94 96 99 101 104 107 109 111 114 115 116 116 115 115 114 113 113 112 112 112 111 110 109 108 107 106 105 104 103 102 101 100 99 97 96 95 94 93
62 62 62 61 61 60 60 60 60 59 59 59 59 59 58 59 59 59 59 59 60 60 61 61 62 63 63 65 66 67 68 70 71 72 73 74 75 76 76 76 77 77 78 80 82 84 86 88 90 92 94 97 100 102 105 108 110 112 113 114 114 114 113 112 112 111 111 111 111 111 110 109 108 107 106 105 105 104 103 102 100 99 97 96 96 95
60 59 59 59 58 58 58 57 57 57 57 57 56 56 56 56 56 57 57 57 57 58 58 59 59 60 61 62 63 64 65 67 68 69 70 71 72 72 73 73 74 75 76 78 80 81 83 84 86 88 90 93 95 98 101 104 106 108 110 111 112 111 110 110 110 110 110 110 111 111 110 110 109 108 107 107 106 105 104 102 101 100 99 98 97 96
57 57 57 56 56 56 55 55 55 55 54 54 54 54 54 54 54 54 55 55 55 56 56 57 57 58 59 60 61 62 63 64 65 66 67 68 69 69 70 71 72 73 74 76 77 78 79 81 82 84 86 89 91 94 97 99 102 104 106 108 108 108 108 108 108 108 108 109 110 110 110 110 110 109 108 107 106 105 104 103 102 101 100 99 98 97
55 54 54 54 53 53 53 53 52 52 52 52 52 52 52 52 52 52 53 53 53 54 54 54 55 56 57 57 58 59 60 61 62 63 64 65 66 66 67 68 69 70 72 73 74 75 76 77 79 81 83 85 88 90 93 95 97 100 102 103 104 105 106 106 106 106 107 108 109 109 109 110 110 109 108 108 107 106 105 104 103 102 101 100 99 98
52 52 52 51 51 51 50 50 50 50 50 50 50 50 50 50 50 50 51 51 51 51 52 52 53 54 54 55 56 56 57 58 59 60 61 62 63 64 65 66 67 68 69 70 71 72 73 74 76 77 79 81 84 86 88 91 93 95 97 98 100 101 103 103 103 104 105 106 107 108 109 109 109 109 109 108 107 106 106 105 104 103 102 101 100 99
50 50 49 49 49 48 48 48 48 48 47 47 47 47 47 48 48 48 48 49 49 49 50 50 51 51 52 53 54 54 55 55 56 57 58 59 60 61 62 63 64 65 66 67 68 69 70 71 73 74 76 78 80 82 85 86 88 90 92 93 95 97 99 100 101 102 104 105 106 107 108 108 109 109 109 109 108 107 107 106 105 104 103 102 101 100
48 48 47 47 47 46 46 46 46 45 45 45 45 45 45 45 46 46 46 46 47 47 47 48 48 49 50 50 51 52 52 53 54 55 55 56 57 58 59 60 61 62 63 64 65 66 68 69 70 71 73 75 77 79 81 82 84 86 87 88 90 92 95 97 99 101 103 104 105 106 106 107 108 109 109 109 109 108 107 106 106 105 104 103 102 101
46 45 45 45 44 44 44 43 43 43 43 43 43 43 43 43 43 44 44 44 45 45 45 46 46 47 48 48 49 50 50 51 52 52 53 54 54 55 56 57 58 59 60 61 63 64 65 66 67 69 70 72 74 75 77 79 80 82 83 84 85 88 92 95 98 99 100 101 102 103 104 105 106 108 109 108 108 108 107 107 106 105 104 103 102 102
44 43 43 43 42 42 42 42 41 41 41 41 41 41 41 41 41 41 42 42 42 43 43 44 44 45 46 46 47 47 48 49 49 50 51 51 52 53 54 55 56 57 58 59 60 62 63 64 65 66 68 69 71 72 74 76 77 78 79 80 82 85 89 93 95 96 97 98 99 99 100 102 104 105 106 107 107 107 107 107 106 105 105 104 103 102
42 41 41 41 40 40 40 39 39 39 39 39 39 39 39 39 39 39 40 40 40 41 41 42 42 43 43 44 45 45 46 47 47 48 49 49 50 51 51 52 53 54 55 56 58 59 60 61 62 64 65 66 68 69 71 73 74 75 76 77 80 83 87 90 92 93 94 95 95 96 97 98 100 102 103 104 105 106 106 106 106 105 104 104 103 102
40 40 39 39 38 38 38 38 37 37 37 37 37 37 37 37 37 37 37 38 38 38 39 39 40 41 41 42 43 43 44 45 45 46 46 47 48 49 49 50 51 52 53 54 55 56 57 59 60 61 62 64 66 67 69 70 72 73 74 76 78 81 84 87 88 90 91 91 92 93 94 95 97 98 100 102 103 104 104 104 105 104 104 103 103 102
39 38 38 37 37 36 36 36 35 35 35 35 35 35 35 35 35 35 35 35 36 36 37 37 38 38 39 40 40 41 42 43 43 44 45 45 46 46 47 48 49 50 50 51 52 54 55 56 58 59 60 62 63 65 67 68 69 71 73 74 76 78 81 83 85 86 88 88 89 90 91 92 94 96 98 99 101 101 102 103 103 103 103 103 102 102
Wind_Direction
278 277 277 277 276 276 276 275 275 275 274 275 274 274 274 274 274 274 274 275 276 276 277 278 278 279 279 279 279 279 278 278 278 278 278 278 279 279 280 280 281 281 282 282 283 283 283 283 284 284 284 284 284 284 284 284 284 284 284 284 285 285 285 285 285 285 285 285 284 283 281 280 279 278 277 276 275 274 274 273 273 273 273 272 272 272
278 278 277 277 276 276 276 275 275 275 275 275 275 275 275 275 275 275 275 275 276 276 276 277 277 278 278 278 278 278 278 278 277 277 277 278 278 278 279 279 280 280 281 281 281 282 282 282 282 283 283 283 283 283 283 283 283 284 284 284 285 285 285 285 285 285 285 284 283 282 281 279 278 277 276 275 274 273 273 272 272 272 272 271 271 271
278 278 278 278 277 277 276 276 276 276 276 276 276 276 276 276 276 276 276 275 275 275 275 275 275 276 276 276 276 276 276 276 276 276 276 277 277 277 277 278 278 278 279 279 280 280 280 281 281 281 281 282 282 282 282 282 283 283 283 284 284 285 285 285 285 284 284 283 282 281 279 278 277 276 275 274 273 272 272 272 271 271 271 271 271 271
277 277 277 277 277 276 276 276 276 276 276 276 276 276 276 276 275 275 275 275 274 274 273 273 273 274 274 274 275 275 275 275 275 275 275 275 276 276 276 276 277 277 277 278 278 279 279 279 280 280 280 281 281 281 282 282 282 283 283 283 284 284 284 284 284 284 283 282 281 280 278 277 276 275 273 273 272 271 271 271 270 270 270 270 270 270
276 275 275 275 275 274 275 274 274 274 274 274 274 274 273 273 273 273 273 273 273 272 272 272 272 272 272 273 273 273 274 274 274 274 274 275 275 275 275 275 276 276 276 277 277 278 278 279 279 279 280 280 280 281 281 282 282 282 283 283 283 284 284 283 283 282 282 281 280 278 277 276 274 273 272 271 270 270 270 270 269 269 269 269 269 269
275 274 274 274 273 273 273 273 273 272 272 272 272 271 271 271 271 271 271 271 271 271 271 271 271 271 271 272 272 272 273 273 273 274 274 274 274 274 275 275 275 275 276 276 277 277 277 278 278 279 279 280 280 280 281 281 282 282 282 283 283 283 283 283 282 281 280 280 278 277 276 274 273 272 270 270 269 269 268 268 268 268 268 268 268 268
275 275 274 274 273 273 273 273 272 272 272 271 271 271 271 271 270 270 270 270 270 270 270 270 270 271 271 271 271 272 272 272 273 273 273 273 274 274 274 274 275 275 275 276 276 277 277 277 278 278 279 279 280 280 280 281 281 281 282 282 282 282 282 282 281 280 279 278 277 276 274 273 271 270 269 268 267 267 267 267 267 267 267 267 267 267
275 275 275 274 273 273 273 273 273 272 272 272 271 271 271 271 271 270 270 270 269 269 269 269 270 270 270 270 271 271 271 272 272 272 272 273 273 273 274 274 274 274 275 275 276 276 276 277 277 278 278 279 279 279 280 280 280 281 281 281 281 281 281 280 280 279 278 277 276 275 273 272 270 269 267 266 266 265 265 265 265 265 266 266 266 266
276 276 275 275 274 274 274 274 273 273 273 272 272 272 272 272 271 271 271 270 270 269 269 269 269 269 269 270 270 270 271 271 271 271 272 272 272 273 273 273 274 274 274 275 275 276 276 276 277 277 278 278 278 279 279 279 280 280 280 280 280 280 280 279 279 278 277 276 275 273 272 270 269 267 266 265 264 264 264 264 264 264 264 264 265 265
278 278 277 277 277 276 275 275 275 275 274 273 273 273 273 273 272 272 272 271 271 271 270 270 269 269 269 270 270 270 271 271 271 271 271 272 272 272 273 273 273 274 274 274 275 275 275 276 276 276 277 277 277 278 278 278 279 279 279 279 279 279 278 278 277 277 276 275 274 272 271 269 268 266 265 264 263 263 263 262 262 262 263 263 263 264
280 280 279 279 278 278 277 276 276 276 275 275 274 274 274 273 273 273 272 272 272 272 271 271 270 270 270 270 270 270 270 271 271 271 271 271 272 272 272 272 273 273 273 273 274 274 274 275 275 275 276 276 276 277 277 277 277 278 278 278 277 277 277 277 276 275 275 274 272 271 270 269 267 266 264 263 263 262 262 261 261 261 262 262 262 263
281 281 281 280 280 279 278 278 277 277 276 276 275 275 274 274 274 274 273 273 273 272 272 271 271 271 270 270 270 270 270 270 271 271 271 271 271 271 272 272 272 272 272 273 273 273 273 274 274 274 275 275 275 276 276 276 276 276 276 276 276 276 276 275 275 274 273 272 271 270 269 268 267 265 264 263 262 261 261 261 260 260 261 261 261 262
282 282 281 281 280 280 279 279 278 278 277 276 276 275 275 275 275 274 274 273 273 273 272 272 271 271 271 270 270 270 270 270 270 271 271 271 271 271 271 271 271 271 272 272 272 272 273 273 273 273 274 274 274 274 275 275 275 275 275 275 275 274 274 274 273 273 272 271 271 269 268 267 266 265 264 263 262 261 261 260 260 260 260 260 261 261
282 282 282 281 281 280 279 279 278 278 277 277 276 276 275 275 275 274 274 273 273 272 272 271 271 271 270 270 270 269 269 269 270 270 270 270 271 271 271 271 271 271 271 271 271 271 272 272 272 272 273 273 273 273 273 273 273 273 273 273 273 273 273 272 272 272 271 270 270 269 268 267 266 265 264 263 262 261 261 260 260 260 260 260 260 260
283 283 282 282 281 281 280 279 279 278 278 277 277 276 276 275 275 274 274 273 273 272 272 271 271 271 270 270 269 269 269 269 269 269 269 270 270 270 270 270 270 270 270 270 270 270 271 271 271 271 271 272 272 272 272 272 272 272 272 272 272 272 271 271 271 270 270 269 269 268 267 266 265 265 264 263 262 262 261 260 260 260 260 260 260 260
284 284 283 282 282 281 281 280 280 279 278 278 277 277 276 276 275 274 274 273 273 272 272 271 271 270 270 269 269 269 268 268 268 268 268 269 269 269 269 269 269 269 269 269 269 270 270 270 270 270 270 270 271 271 271 271 271 271 271 270 270 270 270 270 270 269 269 268 268 267 266 266 265 264 264 263 262 262 261 261 260 260 260 260 260 260
284 284 283 283 283 282 282 281 280 280 279 278 278 277 277 276 276 275 274 274 273 273 272 271 271 270 270 269 269 268 268 267 267 267 267 267 268 268 268 268 268 268 268 269 269 269 269 269 269 269 269 269 269 269 269 269 269 269 269 269 269 269 269 269 268 268 268 267 267 266 266 265 265 264 264 263 263 262 262 261 261 260 260 260 260 260
284 284 283 283 282 282 282 281 281 280 279 279 278 277 277 276 276 275 275 274 274 273 272 272 271 270 270 269 269 268 267 267 267 266 266 266 267 267 267 267 268 268 268 268 268 268 268 268 268 268 268 268 268 268 268 268 268 268 268 268 268 268 268 268 267 267 267 267 266 266 265 265 264 264 263 263 262 262 262 261 261 261 261 260 260 260
283 283 283 282 282 281 281 280 280 279 279 278 277 277 276 276 275 275 275 274 274 273 273 272 271 270 270 269 268 268 267 267 266 266 266 265 266 266 266 266 267 267 267 267 267 267 267 267 267 267 267 267 267 267 267 267 267 267 267 267 267 267 267 267 267 266 266 266 265 265 265 264 264 263 263 263 262 262 262 261 261 261 261 261 261 260
283 282 282 281 281 281 280 279 279 278 278 277 277 276 275 275 275 274 274 273 273 273 272 272 271 270 270 269 268 268 267 266 266 265 265 265 265 265 265 265 266 266 266 266 266 266 266 266 266 266 266 266 266 266 266 266 266 266 266 266 266 266 266 266 266 266 265 265 265 264 264 264 263 263 263 262 262 262 262 261 261 261 261 261 261 261
283 282 282 281 280 280 279 279 278 277 277 276 276 275 275 274 273 273 272 272 272 272 271 271 271 270 269 269 268 267 266 266 265 265 265 264 264 264 264 264 265 265 265 265 265 265 265 265 265 265 265 265 265 265 265 265 265 265 265 265 265 265 265 265 265 265 265 264 264 264 264 263 263 263 262 262 262 262 261 261 261 261 261 261 261 261
283 282 281 281 280 279 279 278 277 277 276 276 275 274 274 273 273 272 271 271 270 270 270 270 269 269 269 268 267 267 266 265 265 264 264 264 263 263 263 263 263 264 264 264 264 264 263 263 264 264 264 264 264 264 264 264 264 264 264 264 264 264 264 264 264 264 264 264 264 263 263 263 263 262 262 262 261 261 261 261 261 261 261 261 261 261
283 283 282 281 280 280 279 278 277 277 276 275 275 274 273 273 272 271 271 270 269 269 268 268 268 268 268 267 266 266 265 264 264 263 263 263 262 262 262 262 262 262 263 263 263 262 262 262 262 262 262 262 262 263 263 263 263 263 263 263 263 263 263 263 263 263 263 263 263 263 263 262 262 262 262 262 261 261 261 261 261 261 261 261 261 261
284 283 283 282 281 280 279 279 278 277 276 275 275 274 273 273 272 271 270 269 269 268 267 267 267 266 266 265 265 264 264 263 263 262 262 262 261 261 261 260 260 261 261 261 261 261 261 261 261 261 261 261 261 261 261 262 262 262 262 262 262 262 262 262 262 262 262 262 262 262 262 262 262 262 261 261 261 261 261 261 260 260 260 260 260 261
284 284 283 283 282 281 280 279 278 277 277 276 275 274 273 273 272 271 270 269 268 267 266 266 265 264 264 264 263 263 263 262 262 261 261 261 260 260 259 259 259 259 259 259 260 260 260 260 260 260 260 260 260 260 260 260 260 261 261 261 261 261 261 261 262 262 262 262 262 262 261 261 261 261 261 261 261 260 260 260 260 260 260 260 260 260
285 284 284 283 282 281 281 280 279 278 277 276 275 274 273 272 272 271 270 269 268 267 266 265 264 263 263 262 262 262 261 261 261 260 260 259 259 259 258 258 257 257 257 258 258 258 258 258 258 258 258 258 258 259 259 259 259 259 260 260 260 260 260 260 260 261 261 261 261 261 261 261 260 260 260 260 260 260 260 260 260 260 260 260 260 260
285 285 284 283 282 282 281 280 279 278 277 276 275 274 273 272 271 270 269 268 267 266 265 264 264 263 262 261 261 261 260 260 260 259 259 258 258 258 257 257 256 256 256 256 256 257 257 257 257 257 257 257 257 257 258 258 258 258 259 259 259 259 259 259 259 259 259 259 260 260 260 260 260 260 259 259 259 259 259 259 259 259 259 259 259 260
285 285 284 283 282 282 281 280 279 278 277 276 275 274 273 272 271 270 269 268 267 266 265 264 263 262 261 260 260 260 259 259 259 258 258 257 257 256 256 256 255 255 255 255 255 255 255 256 256 256 256 256 256 256 256 257 257 257 257 257 258 258 258 258 258 258 258 258 258 258 259 259 259 259 259 259 259 259 259 259 259 259 259 259 259 259
285 285 284 283 282 282 281 280 279 278 277 276 275 274 273 272 271 270 269 268 267 266 265 264 263 262 261 260 259 259 258 258 258 257 257 256 256 255 255 254 254 254 253 253 253 253 254 254 254 255 255 255 255 255 255 255 255 256 256 256 256 256 256 257 257 257 257 257 257 257 257 257 258 258 258 258 258 258 258 258 258 258 258 259 259 259
286 285 284 283 282 281 280 279 278 278 277 276 275 274 273 272 271 270 269 268 267 266 265 264 263 262 261 260 259 258 257 257 257 256 256 255 255 254 254 253 252 252 252 252 252 252 252 252 253 253 253 254 254 254 254 254 254 254 254 254 255 255 255 255 255 255 256 256 256 256 256 256 257 257 257 257 257 257 257 257 258 258 258 258 258 259
286 285 285 284 283 281 280 279 278 277 276 275 274 273 273 272 271 270 269 268 267 266 265 264 263 262 261 260 259 258 257 256 256 256 255 255 254 254 253 252 251 251 250 250 250 250 250 251 251 252 252 252 252 252 252 253 253 253 253 253 253 254 254 254 254 254 254 255 255 255 255 255 256 256 256 256 256 257 257 257 257 257 257 258 258 258
287 286 285 284 283 282 281 280 279 278 276 275 274 273 272 272 271 270 269 268 267 266 266 264 263 262 261 260 258 257 257 256 256 256 255 255 254 254 253 252 251 250 250 249 249 249 249 249 250 250 251 251 251 251 251 251 251 252 252 252 252 252 253 253 253 253 253 254 254 254 254 254 255 255 255 255 256 256 256 256 256 257 257 257 257 258
287 287 286 285 284 283 282 281 280 278 277 276 275 273 273 272 271 270 269 268 267 266 265 264 263 262 261 260 259 258 257 256 256 256 255 255 254 254 253 252 251 250 249 249 248 248 248 248 249 249 250 250 250 250 250 250 250 251 251 251 251 251 251 252 252 252 252 253 253 253 253 253 254 254 254 255 255 255 255 256 256 256 256 256 257 257
288 287 286 286 285 284 283 282 280 279 278 276 275 274 273 272 271 270 269 268 267 266 265 264 263 262 261 260 259 258 257 256 256 255 255 254 254 254 253 252 251 250 249 249 248 247 247 247 247 248 248 249 249 249 249 249 249 249 250 250 250 250 250 250 251 251 251 252 252 252 252 252 253 253 253 254 254 254 254 255 255 255 255 256 256 256
288 287 287 286 285 285 284 282 281 280 279 277 276 275 274 272 271 270 269 268 267 266 265 264 263 262 261 260 259 258 257 257 256 255 255 254 254 253 253 252 251 250 249 248 247 247 246 246 246 246 247 247 248 248 248 248 248 248 248 249 249 249 249 249 250 250 250 251 251 251 251 251 252 252 252 253 253 253 254 254 254 254 254 255 255 255
288 288 287 286 286 285 284 283 282 281 280 278 277 276 274 273 272 271 269 268 267 266 265 264 263 262 261 260 259 258 257 257 256 255 254 253 253 253 252 251 250 249 248 247 247 246 246 245 245 245 245 246 246 247 247 247 247 247 247 247 248 248 248 248 248 249 249 250 250 250 250 250 251 251 251 251 252 252 252 253 253 253 253 254 254 254
289 288 287 287 286 285 284 284 283 281 280 279 278 276 275 274 272 271 270 269 268 267 265 264 263 262 261 260 259 258 257 256 255 254 254 253 253 252 252 251 250 249 248 247 247 246 245 245 244 244 244 244 244 245 245 245 246 246 246 246 246 246 246 247 247 247 248 248 249 249 249 249 249 250 250 250 251 251 251 252 252 252 252 253 253 254
289 289 288 287 287 286 285 284 283 282 281 280 278 277 275 274 273 271 270 269 268 267 265 264 263 262 261 260 259 258 257 256 255 254 254 253 253 252 252 251 250 249 248 247 246 245 245 244 243 243 243 243 243 243 244 244 244 245 245 245 245 245 245 245 245 246 246 247 247 248 248 248 248 249 249 249 249 250 250 250 251 251 251 252 252 253
290 289 289 288 287 286 285 284 283 282 281 280 279 277 276 275 273 272 270 269 268 267 265 264 263 262 261 260 259 258 257 256 255 255 254 253 253 252 252 251 250 249 248 247 246 245 244 243 242 242 242 241 242 242 242 242 243 243 244 244 244 244 244 244 244 244 245 245 246 246 247 247 247 247 248 248 248 249 249 249 250 250 250 251 251 252
291 290 289 289 288 287 286 285 284 283 281 280 279 278 276 275 273 272 270 269 268 266 265 264 263 262 261 259 258 257 256 256 255 254 254 253 253 252 251 251 250 249 248 246 245 244 244 243 242 242 241 241 241 241 241 241 241 242 242 243 243 243 243 243 243 243 243 244 244 245 245 246 246 246 247 247 247 248 248 248 249 249 249 250 250 251
292 291 290 289 288 287 286 285 284 283 282 280 279 278 276 275 273 272 271 269 268 266 265 264 263 261 260 259 258 257 256 256 255 254 254 253 252 252 251 250 249 248 247 246 245 244 244 243 242 242 241 241 240 240 240 240 240 241 241 242 242 242 242 242 242 242 242 243 243 244 244 244 245 245 246 246 246 247 247 247 248 248 249 249 249 250
293 292 291 290 289 288 286 285 284 283 282 281 279 278 277 275 274 272 271 269 268 266 265 264 263 262 260 259 258 257 256 256 255 254 253 253 252 251 250 249 248 247 246 246 245 244 243 243 242 242 241 241 240 240 240 240 240 240 240 241 241 242 242 242 241 241 241 242 242 242 243 243 244 244 245 245 245 246 246 246 247 247 248 248 248 249
294 292 291 290 289 288 287 286 285 283 282 281 280 278 277 276 274 273 271 270 268 267 266 264 263 262 261 260 259 258 257 256 255 254 253 253 252 251 250 249 248 247 246 245 244 244 243 242 242 241 241 240 240 240 240 239 239 239 240 240 240 241 241 241 241 241 241 241 241 241 242 242 243 243 244 244 244 245 245 245 246 246 247 247 248 248
294 293 292 291 290 289 288 286 285 284 283 281 280 279 277 276 275 273 272 271 269 268 266 265 264 263 262 260 259 258 257 256 255 255 254 253 252 251 250 249 248 247 246 245 245 244 243 242 241 241 240 240 240 240 240 239 239 239 239 239 239 240 240 240 240 240 240 240 240 240 241 241 242 242 243 243 243 244 244 245 245 245 246 246 246 247
296 294 293 292 291 289 288 287 286 284 283 282 281 279 278 277 275 274 273 271 270 269 267 266 265 263 262 261 260 259 258 257 256 255 254 253 252 251 250 249 248 248 247 246 245 244 243 242 241 241 240 240 239 239 239 239 239 239 239 239 239 239 239 240 240 240 239 239 239 239 240 240 240 241 242 242 243 243 243 243 244 244 245 245 245 246
297 296 294 293 292 290 289 288 287 285 284 283 281 280 278 277 276 274 273 272 270 269 267 266 265 264 262 261 260 259 258 257 256 255 254 253 252 251 251 250 249 248 247 246 245 244 243 242 241 240 240 239 239 239 239 239 239 239 239 239 238 238 238 239 239 239 239 238 238 238 238 238 239 240 240 241 241 242 242 242 243 243 244 244 245 245
298 297 296 294 293 292 290 289 288 286 285 284 282 281 279 278 276 275 273 272 271 269 268 266 265 264 262 261 260 259 258 257 256 255 254 253 252 251 250 249 249 248 247 246 245 244 243 242 241 240 239 239 239 238 238 238 238 238 238 238 238 237 237 238 238 238 238 238 238 237 237 237 238 238 239 239 240 240 241 241 242 242 243 243 243 244
300 299 297 296 295 293 292 290 289 287 286 285 283 282 280 279 277 276 274 273 272 270 269 267 266 264 263 262 260 259 258 257 256 255 254 253 252 251 250 249 248 247 246 245 244 244 243 242 241 240 239 239 238 238 238 238 237 237 237 237 236 236 236 237 237 237 237 237 237 237 237 237 237 237 238 238 239 239 240 240 241 241 241 242 242 243
302 301 299 298 297 295 294 292 290 289 287 286 284 283 282 280 278 277 275 274 273 271 270 268 267 265 264 262 261 259 258 257 256 255 254 252 251 250 250 249 248 247 246 245 244 243 242 242 241 240 239 238 238 237 237 237 236 236 236 235 235 235 235 236 236 237 237 237 237 237 236 236 236 237 237 238 238 238 239 239 240 240 240 241 241 242
305 303 302 300 299 297 295 294 292 291 289 288 286 284 283 281 280 278 276 275 273 272 270 269 267 266 264 263 261 260 258 257 256 255 253 252 251 250 249 248 247 246 246 245 244 243 242 241 240 239 238 238 237 236 236 235 235 235 234 234 233 233 234 235 235 236 236 236 236 236 236 236 236 236 236 237 237 238 238 238 239 239 240 240 240 241
307 306 304 303 301 300 298 296 295 293 291 289 288 286 284 282 281 279 277 276 274 272 271 269 267 266 264 263 262 260 259 257 256 255 253 252 251 250 249 248 247 246 245 244 244 243 242 241 240 239 238 237 236 236 235 235 234 233 233 233 232 232 233 233 234 235 235 235 235 235 235 235 235 235 235 236 236 237 237 238 238 238 239 239 239 240
Height
10487 10486 10486 10485 10484 10483 10482 10481 10481 10480 10479 10478 10479 10479 10479 10480 10481 10482 10482 10481 10480 10478 10476 10476 10475 10476 10476 10478 10478 10479 10480 10481 10482 10483 10483 10484 10484 10484 10484 10484 10485 10485 10485 10486 10486 10486 10488 10488 10489 10489 10491 10491 10492 10493 10494 10496 10496 10496 10496 10497 10497 10498 10499 10497 10496 10496 10498 10496 10494 10493 10493 10492 10491 10491 10489 10489 10489 10488 10488 10488 10489 10489 10489 10488 10488 10488
10477 10476 10476 10476 10476 10474 10473 10473 10473 10473 10471 10469 10469 10470 10470 10470 10471 10471 10473 10473 10473 10471 10470 10469 10468 10468 10468 10468 10469 10470 10471 10472 10473 10474 10475 10476 10476 10477 10478 10478 10478 10478 10478 10478 10479 10479 10480 10481 10482 10483 10483 10484 10485 10486 10487 10488 10489 10489 10489 10489 10489 10489 10491 10491 10490 10491 10491 10489 10488 10488 10487 10486 10486 10485 10484 10484 10484 10483 10484 10484 10484 10484 10484 10484 10484 10484
10467 10466 10465 10464 10465 10465 10464 10463 10463 10463 10462 10461 10461 10461 10461 10461 10461 10461 10463 10464 10464 10464 10464 10463 10462 10461 10460 10460 10461 10461 10462 10463 10464 10465 10466 10467 10468 10469 10470 10471 10471 10471 10471 10472 10472 10473 10473 10474 10474 10475 10476 10477 10478 10478 10479 10481 10481 10482 10483 10484 10483 10483 10484 10484 10484 10484 10483 10482 10482 10482 10482 10481 10481 10480 10479 10479 10479 10479 10479 10479 10479 10479 10479 10479 10479 10479
10459 10458 10455 10454 10455 10455 10454 10453 10453 10453 10453 10452 10452 10452 10452 10452 10452 10452 10453 10454 10454 10455 10456 10456 10455 10454 10453 10453 10453 10453 10454 10454 10455 10456 10457 10458 10459 10461 10462 10463 10464 10464 10464 10464 10465 10466 10466 10466 10467 10468 10469 10469 10470 10471 10471 10473 10473 10474 10475 10476 10476 10476 10476 10477 10478 10477 10476 10477 10477 10477 10476 10476 10476 10475 10475 10474 10474 10474 10474 10475 10475 10476 10476 10476 10476 10476
10451 10449 10447 10447 10447 10447 10445 10445 10446 10445 10444 10444 10444 10444 10444 10444 10444 10444 10444 10445 10446 10446 10446 10447 10448 10447 10446 10446 10445 10445 10445 10446 10446 10448 10448 10449 10451 10452 10453 10454 10456 10456 10457 10457 10458 10458 10459 10459 10459 10460 10461 10462 10463 10463 10464 10465 10466 10467 10468 10468 10469 10470 10471 10471 10471 10471 10471 10471 10471 10471 10471 10471 10471 10471 10471 10470 10470 10470 10471 10471 10471 10471 10471 10471 10472 10472
10441 10440 10439 10438 10438 10438 10437 10437 10437 10436 10436 10435 10435 10435 10436 10436 10436 10436 10437 10437 10437 10437 10438 10438 10439 10439 10438 10438 10438 10437 10437 10438 10438 10439 10440 10441 10442 10443 10444 10446 10447 10448 10448 10449 10449 10450 10451 10451 10452 10453 10453 10454 10455 10456 10457 10458 10458 10459 10460 10461 10462 10463 10464 10464 10464 10464 10464 10465 10466 10466 10466 10466 10466 10466 10466 10466 10466 10466 10466 10467 10468 10468 10468 10468 10468 10468
10429 10429 10429 10428 10427 10427 10427 10428 10427 10426 10426 10425 10424 10425 10426 10426 10427 10428 10428 10428 10428 10429 10429 10429 10429 10430 10430 10429 10429 10429 10429 10429 10429 10431 10431 10432 10433 10434 10435 10437 10438 10439 10440 10441 10441 10442 10443 10444 10444 10445 10446 10446 10448 10448 10449 10450 10451 10452 10453 10453 10454 10456 10456 10458 10458 10459 10459 10459 10460 10461 10461 10461 10461 10461 10461 10461 10461 10462 10463 10463 10464 10464 10464 10464 10464 10465
10418 10418 10418 10417 10416 10416 10416 10416 10417 10416 10416 10414 10414 10414 10415 10416 10416 10418 10418 10419 10419 10420 10420 10420 10420 10421 10421 10421 10421 10420 10420 10421 10421 10422 10423 10423 10424 10424 10426 10428 10429 10430 10431 10432 10433 10434 10435 10436 10436 10438 10438 10439 10440 10441 10442 10443 10444 10445 10446 10447 10448 10448 10449 10451 10452 10453 10453 10454 10454 10456 10456 10456 10456 10457 10457 10457 10458 10458 10459 10459 10460 10460 10461 10461 10461 10461
10407 10407 10406 10406 10406 10406 10406 10405 10405 10406 10406 10404 10403 10403 10404 10405 10406 10406 10407 10408 10409 10410 10411 10411 10412 10412 10412 10412 10412 10411 10411 10411 10412 10413 10414 10414 10415 10416 10417 10419 10420 10422 10423 10424 10424 10426 10426 10428 10429 10429 10431 10431 10433 10433 10434 10436 10436 10438 10439 10440 10441 10442 10443 10444 10445 10446 10447 10448 10449 10450 10451 10451 10451 10452 10453 10453 10453 10454 10454 10455 10456 10456 10457 10457 10458 10458
10395 10396 10396 10395 10395 10396 10396 10395 10394 10394 10394 10395 10393 10393 10393 10394 10395 10395 10396 10397 10398 10399 10401 10402 10403 10403 10403 10404 10404 10403 10402 10401 10403 10404 10405 10406 10406 10407 10408 10409 10411 10413 10414 10416 10416 10418 10418 10419 10421 10422 10423 10424 10425 10426 10428 10428 10429 10431 10432 10433 10434 10435 10436 10438 10439 10440 10441 10442 10443 10444 10445 10446 10446 10447 10448 10448 10449 10449 10451 10451 10452 10453 10453 10453 10454 10454
10383 10383 10384 10384 10384 10384 10384 10385 10384 10383 10383 10384 10383 10382 10381 10383 10384 10384 10384 10386 10387 10389 10391 10391 10393 10394 10395 10396 10396 10394 10394 10393 10393 10393 10395 10396 10398 10398 10399 10401 10403 10404 10406 10408 10409 10409 10411 10411 10413 10414 10415 10416 10418 10419 10420 10421 10423 10424 10425 10426 10428 10429 10430 10431 10433 10434 10435 10436 10438 10439 10440 10441 10441 10442 10443 10444 10444 10445 10446 10446 10448 10448 10449 10449 10450 10451
10371 10371 10372 10373 10373 10373 10373 10373 10373 10372 10373 10373 10372 10371 10369 10369 10371 10373 10374 10374 10376 10378 10380 10381 10382 10383 10386 10387 10388 10387 10386 10385 10384 10383 10384 10386 10388 10389 10391 10393 10394 10396 10398 10399 10400 10401 10403 10403 10404 10406 10408 10409 10410 10411 10413 10414 10415 10416 10418 10419 10421 10422 10424 10425 10426 10428 10429 10431 10432 10433 10434 10435 10436 10437 10438 10439 10439 10440 10441 10441 10443 10444 10444 10445 10446 10446
10360 10360 10361 10361 10361 10361 10360 10360 10360 10360 10360 10360 10360 10359 10358 10358 10359 10361 10363 10363 10364 10366 10369 10371 10372 10373 10375 10378 10379 10379 10379 10378 10376 10374 10374 10376 10378 10379 10382 10383 10385 10386 10388 10390 10392 10393 10394 10396 10396 10398 10399 10401 10403 10404 10405 10407 10408 10409 10411 10413 10414 10415 10417 10419 10420 10422 10423 10424 10426 10428 10429 10430 10431 10432 10433 10433 10434 10435 10436 10437 10438 10439 10439 10441 10441 10442
10348 10348 10348 10349 10349 10348 10348 10348 10348 10348 10347 10346 10347 10347 10347 10346 10348 10349 10351 10351 10351 10353 10358 10361 10362 10363 10364 10368 10369 10371 10370 10369 10368 10367 10366 10366 10367 10369 10372 10374 10375 10377 10379 10381 10383 10384 10386 10388 10388 10389 10391 10393 10394 10396 10398 10399 10401 10402 10404 10405 10407 10408 10410 10412 10414 10416 10417 10419 10420 10421 10423 10424 10425 10426 10427 10428 10429 10429 10431 10431 10433 10434 10435 10436 10437 10438
10333 10333 10334 10334 10334 10334 10334 10335 10335 10334 10333 10333 10333 10334 10334 10334 10334 10336 10337 10338 10338 10340 10344 10348 10350 10351 10353 10357 10359 10361 10361 10361 10360 10359 10358 10356 10357 10359 10361 10364 10365 10367 10369 10372 10374 10375 10377 10379 10380 10381 10383 10384 10386 10388 10389 10391 10393 10394 10396 10398 10399 10401 10403 10405 10407 10409 10411 10413 10414 10416 10417 10418 10419 10421 10421 10423 10423 10424 10425 10426 10428 10429 10430 10431 10432 10433
10317 10318 10318 10318 10318 10318 10319 10320 10320 10320 10319 10318 10318 10319 10321 10320 10319 10321 10323 10324 10326 10328 10331 10335 10338 10339 10341 10345 10348 10351 10351 10351 10351 10349 10349 10348 10347 10348 10351 10353 10354 10356 10359 10363 10364 10366 10368 10369 10371 10373 10374 10376 10378 10379 10381 10383 10384 10386 10388 10390 10392 10394 10396 10398 10400 10403 10404 10406 10408 10409 10411 10413 10414 10415 10416 10417 10418 10419 10420 10421 10423 10424 10425 10426 10427 10428
10303 10303 10303 10303 10302 10301 10302 10303 10304 10304 10304 10303 10303 10303 10304 10304 10304 10305 10307 10310 10312 10314 10316 10321 10324 10326 10329 10332 10335 10338 10340 10341 10341 10340 10340 10339 10338 10338 10339 10343 10344 10346 10349 10353 10355 10357 10358 10360 10362 10363 10365 10367 10368 10370 10372 10374 10376 10378 10380 10383 10384 10387 10389 10391 10393 10395 10398 10399 10401 10403 10404 10406 10408 10409 10410 10411 10412 10413 10414 10416 10417 10418 10419 10421 10422 10423
10289 10288 10288 10288 10288 10287 10286 10287 10288 10289 10288 10287 10287 10288 10288 10288 10289 10290 10291 10294 10296 10298 10301 10304 10308 10313 10316 10319 10321 10323 10326 10329 10331 10330 10329 10330 10329 10329 10330 10333 10334 10336 10338 10343 10346 10347 10349 10351 10352 10354 10356 10358 10359 10361 10363 10365 10368 10370 10372 10374 10376 10379 10381 10383 10386 10388 10390 10392 10394 10396 10398 10400 10401 10403 10404 10405 10406 10407 10408 10410 10411 10413 10414 10415 10416 10418
10276 10274 10274 10274 10274 10273 10273 10273 10273 10273 10272 10271 10271 10272 10273 10274 10274 10276 10276 10278 10279 10281 10284 10288 10292 10296 10301 10305 10307 10309 10312 10316 10317 10316 10316 10318 10319 10320 10322 10324 10325 10326 10327 10331 10334 10337 10339 10341 10343 10344 10346 10348 10349 10352 10354 10356 10359 10361 10363 10366 10368 10371 10373 10376 10378 10380 10383 10385 10387 10389 10391 10393 10395 10396 10398 10399 10400 10401 10403 10404 10406 10407 10408 10409 10411 10412
10263 10261 10261 10260 10259 10259 10259 10258 10258 10258 10257 10256 10256 10256 10258 10259 10261 10261 10262 10264 10264 10265 10267 10271 10275 10279 10283 10288 10293 10296 10298 10301 10302 10302 10302 10304 10308 10310 10311 10314 10316 10316 10318 10321 10324 10327 10329 10331 10333 10334 10336 10338 10340 10342 10344 10347 10349 10352 10354 10357 10359 10362 10365 10368 10370 10373 10374 10377 10379 10382 10384 10386 10388 10389 10391 10393 10394 10395 10396 10398 10399 10401 10403 10404 10405 10406
10248 10246 10246 10246 10245 10245 10244 10243 10241 10241 10241 10242 10242 10241 10241 10243 10245 10247 10248 10249 10251 10251 10253 10255 10258 10262 10266 10271 10277 10281 10283 10285 10286 10287 10287 10289 10294 10299 10301 10303 10303 10304 10307 10310 10314 10317 10319 10321 10322 10323 10326 10328 10329 10332 10334 10337 10340 10343 10346 10348 10351 10353 10356 10359 10361 10364 10367 10369 10371 10374 10376 10379 10381 10383 10384 10386 10387 10389 10390 10392 10393 10395 10396 10398 10399 10401
10231 10231 10230 10230 10230 10229 10229 10228 10226 10225 10226 10228 10228 10226 10225 10226 10229 10231 10234 10235 10236 10237 10239 10241 10242 10245 10249 10256 10261 10265 10266 10268 10271 10272 10272 10275 10281 10286 10290 10293 10294 10294 10294 10297 10301 10306 10309 10310 10311 10313 10315 10317 10319 10322 10324 10328 10330 10333 10336 10339 10342 10344 10348 10350 10353 10356 10358 10361 10363 10366 10369 10371 10373 10375 10377 10379 10380 10382 10384 10385 10387 10389 10390 10391 10393 10394
10215 10214 10214 10214 10214 10213 10213 10213 10211 10211 10211 10212 10212 10211 10211 10211 10212 10215 10218 10220 10221 10222 10224 10226 10228 10231 10234 10239 10244 10246 10248 10251 10254 10256 10258 10261 10266 10271 10275 10281 10285 10284 10283 10283 10288 10294 10298 10299 10299 10301 10304 10306 10309 10312 10314 10318 10321 10324 10326 10329 10333 10336 10338 10341 10344 10347 10349 10353 10356 10358 10361 10363 10365 10368 10369 10371 10373 10375 10377 10379 10381 10382 10384 10385 10387 10388
10199 10199 10198 10198 10198 10197 10197 10197 10196 10196 10196 10196 10197 10197 10196 10196 10197 10199 10202 10204 10206 10207 10210 10213 10214 10216 10219 10223 10225 10228 10230 10233 10237 10239 10243 10246 10251 10255 10261 10268 10273 10274 10271 10271 10276 10281 10286 10286 10287 10289 10292 10296 10299 10301 10304 10308 10311 10314 10317 10320 10323 10326 10329 10332 10335 10338 10341 10344 10347 10350 10353 10355 10358 10359 10362 10364 10366 10368 10370 10372 10374 10376 10377 10379 10380 10382
10184 10183 10183 10183 10183 10183 10182 10182 10182 10182 10182 10182 10182 10182 10182 10182 10183 10184 10186 10188 10190 10192 10194 10197 10199 10201 10204 10206 10208 10210 10213 10217 10220 10223 10226 10230 10234 10240 10247 10254 10259 10261 10259 10259 10264 10269 10274 10274 10274 10276 10280 10284 10288 10291 10294 10298 10301 10304 10307 10310 10313 10317 10320 10323 10326 10329 10332 10335 10338 10341 10344 10348 10349 10352 10354 10356 10358 10361 10363 10364 10366 10369 10370 10372 10373 10375
10171 10169 10169 10168 10168 10168 10168 10168 10168 10168 10169 10169 10169 10169 10169 10169 10169 10169 10170 10172 10174 10177 10179 10181 10184 10186 10189 10191 10193 10195 10198 10200 10202 10205 10210 10214 10219 10224 10232 10239 10244 10246 10247 10249 10253 10257 10261 10261 10261 10263 10267 10272 10276 10279 10284 10288 10291 10294 10298 10301 10304 10307 10311 10314 10317 10320 10323 10326 10329 10333 10336 10339 10341 10344 10346 10348 10351 10353 10355 10358 10359 10361 10363 10365 10367 10368
10159 10157 10156 10154 10154 10153 10153 10153 10153 10153 10154 10154 10154 10154 10155 10155 10156 10156 10156 10157 10159 10162 10164 10166 10169 10171 10174 10177 10179 10181 10183 10183 10185 10188 10194 10198 10203 10209 10216 10223 10228 10231 10234 10237 10241 10244 10247 10247 10248 10250 10254 10260 10265 10269 10273 10277 10281 10284 10288 10291 10294 10297 10301 10304 10308 10311 10314 10318 10321 10323 10326 10330 10333 10336 10338 10340 10343 10345 10348 10350 10352 10354 10356 10358 10360 10362
10146 10145 10143 10142 10141 10141 10140 10140 10140 10139 10139 10139 10139 10139 10139 10140 10141 10141 10142 10144 10146 10149 10150 10152 10154 10157 10160 10163 10165 10167 10168 10169 10170 10174 10178 10183 10188 10193 10200 10207 10213 10217 10221 10224 10227 10231 10234 10235 10236 10237 10242 10248 10253 10258 10263 10267 10271 10274 10278 10281 10284 10287 10290 10294 10298 10301 10304 10308 10311 10314 10318 10321 10324 10327 10329 10332 10334 10337 10339 10342 10344 10347 10349 10351 10353 10355
10134 10133 10131 10130 10129 10128 10128 10128 10128 10127 10127 10126 10126 10126 10126 10127 10128 10128 10128 10131 10134 10136 10138 10139 10141 10144 10147 10150 10152 10153 10154 10156 10157 10159 10162 10166 10171 10178 10185 10191 10196 10201 10206 10209 10213 10217 10222 10223 10223 10224 10228 10234 10240 10246 10251 10256 10259 10263 10266 10269 10273 10276 10279 10283 10287 10291 10294 10298 10302 10305 10309 10312 10315 10318 10321 10324 10326 10329 10332 10334 10337 10339 10342 10344 10346 10348
10123 10121 10119 10118 10118 10117 10116 10116 10116 10115 10114 10114 10114 10113 10113 10114 10115 10116 10116 10118 10121 10123 10125 10128 10130 10132 10135 10138 10139 10140 10141 10142 10143 10144 10146 10151 10156 10163 10169 10174 10181 10186 10191 10194 10198 10204 10208 10209 10210 10212 10216 10222 10227 10233 10239 10244 10248 10251 10255 10258 10262 10266 10269 10273 10276 10280 10284 10288 10292 10296 10299 10303 10306 10309 10313 10315 10318 10321 10324 10326 10329 10333 10335 10338 10339 10341
10111 10109 10108 10106 10106 10105 10105 10104 10104 10104 10103 10103 10103 10102 10102 10103 10103 10103 10104 10106 10107 10109 10111 10114 10118 10121 10123 10124 10126 10128 10128 10128 10129 10131 10134 10138 10143 10147 10153 10159 10165 10171 10176 10179 10184 10190 10194 10196 10198 10201 10206 10210 10215 10220 10226 10231 10236 10239 10243 10247 10251 10254 10258 10261 10265 10269 10274 10278 10283 10287 10291 10294 10298 10301 10304 10307 10310 10313 10316 10319 10322 10325 10328 10331 10333 10334
10101 10099 10096 10095 10094 10094 10094 10094 10094 10093 10093 10092 10091 10091 10091 10091 10092 10093 10093 10094 10096 10098 10099 10102 10104 10108 10109 10112 10114 10115 10116 10117 10119 10121 10125 10128 10131 10134 10141 10147 10152 10157 10162 10166 10171 10176 10181 10183 10186 10190 10195 10199 10203 10208 10213 10219 10224 10228 10231 10236 10240 10243 10246 10251 10254 10259 10264 10268 10273 10277 10281 10286 10289 10293 10296 10299 10301 10304 10308 10311 10314 10318 10321 10323 10325 10327
10092 10089 10087 10085 10084 10083 10083 10083 10083 10083 10083 10082 10081 10081 10081 10081 10081 10082 10083 10083 10085 10086 10089 10091 10093 10095 10098 10099 10101 10103 10104 10108 10109 10112 10114 10116 10119 10122 10128 10135 10141 10145 10149 10153 10158 10164 10168 10171 10174 10179 10184 10187 10191 10196 10201 10207 10211 10215 10219 10224 10228 10232 10235 10240 10244 10249 10253 10258 10263 10268 10272 10276 10280 10284 10287 10290 10293 10296 10299 10303 10306 10309 10313 10316 10318 10319
10083 10080 10078 10076 10074 10074 10073 10073 10073 10073 10073 10073 10072 10071 10071 10071 10072 10072 10073 10074 10075 10076 10078 10079 10082 10084 10086 10088 10089 10091 10093 10096 10098 10100 10103 10104 10106 10109 10114 10121 10128 10133 10136 10140 10146 10151 10156 10159 10163 10168 10173 10176 10179 10183 10189 10194 10198 10203 10206 10212 10216 10221 10224 10229 10234 10239 10243 10248 10253 10258 10263 10268 10271 10275 10278 10282 10285 10288 10291 10295 10298 10302 10305 10308 10310 10312
10074 10072 10069 10068 10067 10066 10065 10064 10064 10063 10063 10063 10063 10063 10063 10063 10063 10063 10064 10064 10066 10067 10068 10070 10072 10074 10076 10078 10079 10081 10083 10085 10088 10089 10091 10093 10094 10098 10101 10108 10114 10119 10124 10128 10133 10138 10143 10146 10151 10157 10161 10164 10167 10171 10177 10182 10186 10189 10194 10199 10204 10209 10213 10219 10224 10229 10233 10238 10243 10248 10253 10258 10262 10266 10269 10273 10276 10280 10283 10286 10290 10294 10297 10299 10302 10304
10066 10064 10062 10061 10059 10058 10056 10056 10055 10054 10054 10054 10054 10054 10054 10054 10054 10054 10054 10055 10056 10058 10060 10062 10064 10065 10066 10068 10070 10071 10073 10074 10077 10079 10080 10081 10084 10087 10090 10095 10101 10108 10113 10116 10121 10126 10130 10134 10140 10146 10151 10154 10156 10160 10164 10169 10173 10178 10183 10188 10192 10197 10202 10208 10214 10219 10224 10228 10233 10238 10243 10248 10253 10257 10260 10264 10268 10271 10274 10278 10281 10285 10288 10291 10294 10297
10058 10056 10054 10053 10051 10050 10049 10048 10047 10046 10046 10046 10046 10046 10046 10046 10046 10046 10046 10047 10048 10049 10052 10054 10056 10058 10059 10061 10062 10062 10063 10064 10066 10068 10069 10071 10074 10076 10079 10084 10090 10096 10101 10106 10109 10114 10119 10124 10129 10134 10139 10143 10145 10148 10151 10156 10161 10166 10170 10174 10178 10184 10190 10197 10203 10209 10214 10218 10223 10228 10232 10238 10243 10247 10251 10254 10259 10263 10266 10269 10273 10276 10280 10283 10286 10289
10051 10049 10047 10046 10044 10043 10042 10041 10039 10039 10038 10038 10038 10038 10038 10038 10038 10038 10039 10039 10040 10041 10043 10044 10046 10048 10049 10051 10051 10053 10054 10055 10056 10058 10059 10061 10064 10067 10070 10074 10079 10086 10091 10094 10099 10103 10108 10113 10117 10121 10126 10130 10133 10136 10140 10144 10149 10154 10157 10161 10165 10171 10179 10186 10193 10199 10204 10208 10213 10217 10223 10228 10233 10237 10241 10246 10250 10254 10258 10261 10264 10268 10272 10276 10279 10282
10044 10043 10041 10039 10038 10036 10035 10034 10033 10032 10031 10031 10031 10030 10030 10030 10031 10031 10031 10032 10033 10033 10034 10035 10036 10038 10039 10041 10042 10043 10044 10046 10047 10049 10051 10053 10055 10058 10062 10066 10071 10076 10080 10084 10088 10093 10097 10101 10104 10109 10113 10118 10122 10126 10129 10134 10138 10141 10144 10148 10154 10161 10168 10174 10181 10188 10194 10198 10203 10208 10213 10218 10222 10227 10231 10236 10240 10244 10248 10251 10255 10260 10264 10268 10272 10275
10039 10036 10034 10033 10031 10030 10029 10028 10026 10026 10024 10024 10024 10023 10023 10023 10023 10023 10024 10024 10025 10026 10026 10028 10029 10030 10031 10033 10034 10034 10036 10037 10039 10040 10042 10044 10047 10050 10054 10058 10062 10066 10071 10074 10078 10081 10085 10089 10094 10098 10103 10108 10112 10115 10119 10123 10126 10129 10134 10138 10143 10149 10156 10162 10169 10177 10183 10188 10193 10198 10202 10207 10212 10217 10221 10225 10229 10233 10237 10241 10246 10251 10256 10259 10263 10266
10033 10031 10029 10027 10025 10024 10023 10021 10020 10019 10018 10018 10018 10017 10017 10016 10016 10016 10017 10017 10018 10018 10019 10020 10021 10023 10023 10024 10026 10026 10028 10029 10031 10033 10034 10036 10039 10043 10046 10049 10053 10057 10061 10064 10067 10071 10076 10080 10084 10089 10094 10098 10101 10104 10108 10112 10115 10118 10123 10128 10133 10138 10144 10151 10159 10167 10173 10179 10183 10188 10192 10197 10202 10207 10211 10215 10219 10224 10228 10233 10238 10243 10247 10251 10254 10258
10028 10026 10023 10021 10019 10018 10017 10016 10014 10014 10013 10012 10011 10011 10010 10010 10010 10010 10010 10011 10011 10012 10013 10013 10014 10015 10016 10017 10018 10019 10021 10022 10024 10026 10027 10029 10032 10034 10038 10041 10044 10048 10051 10054 10058 10061 10066 10071 10076 10080 10084 10088 10091 10094 10098 10102 10105 10109 10113 10118 10124 10129 10136 10142 10149 10158 10163 10168 10173 10178 10183 10188 10192 10196 10201 10205 10209 10214 10219 10224 10229 10234 10238 10242 10246 10249
10022 10019 10018 10016 10014 10013 10011 10010 10009 10008 10007 10006 10006 10005 10004 10004 10004 10004 10004 10004 10004 10006 10006 10007 10008 10009 10009 10010 10011 10013 10014 10016 10017 10019 10021 10023 10025 10028 10030 10033 10036 10039 10042 10045 10049 10053 10058 10062 10066 10071 10074 10078 10082 10085 10088 10092 10096 10100 10104 10109 10114 10121 10128 10133 10139 10146 10152 10157 10163 10168 10173 10178 10182 10186 10191 10195 10200 10206 10211 10216 10221 10224 10228 10233 10237 10241
10017 10014 10013 10011 10009 10008 10006 10005 10004 10003 10002 10001 10000 9999 9999 9999 9999 9998 9998 9999 9999 9999 10001 10001 10002 10003 10003 10004 10005 10006 10008 10009 10011 10013 10014 10016 10018 10021 10023 10026 10029 10031 10034 10038 10041 10045 10049 10054 10058 10061 10066 10069 10073 10076 10079 10083 10088 10091 10095 10100 10106 10112 10118 10124 10128 10134 10141 10147 10152 10157 10163 10168 10173 10177 10181 10186 10191 10196 10202 10207 10211 10216 10220 10225 10229 10234
10012 10010 10008 10006 10004 10003 10001 10000 9999 9998 9997 9996 9995 9994 9994 9994 9993 9993 9993 9993 9994 9994 9995 9996 9996 9997 9998 9998 9999 10001 10002 10003 10005 10006 10008 10010 10012 10014 10017 10019 10022 10025 10028 10031 10034 10038 10042 10046 10049 10053 10058 10061 10065 10068 10071 10075 10079 10083 10088 10093 10098 10104 10109 10114 10119 10124 10131 10137 10141 10146 10151 10157 10163 10168 10173 10177 10182 10187 10191 10197 10201 10206 10211 10216 10221 10226
10008 10005 10003 10001 10000 9998 9997 9996 9994 9993 9992 9991 9991 9990 9989 9989 9989 9988 9988 9988 9989 9989 9989 9990 9991 9991 9992 9993 9994 9995 9996 9998 9999 10001 10003 10004 10006 10008 10011 10013 10016 10019 10021 10024 10028 10031 10035 10038 10042 10046 10050 10054 10057 10060 10064 10068 10071 10076 10080 10086 10092 10097 10101 10105 10109 10114 10120 10124 10129 10134 10141 10146 10153 10158 10163 10166 10171 10176 10181 10187 10192 10197 10201 10207 10213 10218
10003 10001 9999 9997 9996 9994 9993 9991 9990 9989 9988 9987 9986 9986 9985 9984 9984 9984 9984 9984 9984 9984 9984 9985 9986 9986 9987 9988 9989 9989 9991 9992 9993 9995 9997 9999 10001 10003 10004 10007 10009 10013 10015 10018 10021 10024 10028 10031 10034 10039 10043 10046 10049 10053 10056 10060 10064 10068 10073 10079 10085 10090 10093 10096 10099 10103 10107 10112 10117 10123 10130 10137 10143 10148 10152 10156 10161 10166 10173 10178 10183 10188 10193 10198 10204 10209
9999 9997 9995 9993 9992 9991 9989 9988 9986 9984 9984 9983 9982 9981 9981 9980 9979 9979 9979 9979 9979 9979 9980 9980 9981 9981 9982 9983 9983 9984 9986 9986 9988 9989 9991 9993 9995 9997 9999 10001 10004 10006 10009 10011 10014 10017 10020 10024 10028 10031 10035 10039 10042 10046 10049 10053 10056 10061 10065 10071 10077 10081 10084 10086 10088 10092 10097 10102 10108 10114 10121 10128 10133 10138 10141 10146 10152 10158 10163 10168 10173 10179 10184 10190 10196 10201
9995 9993 9991 9989 9988 9986 9984 9983 9982 9981 9979 9979 9978 9977 9976 9976 9976 9976 9975 9975 9975 9976 9976 9976 9976 9977 9977 9978 9979 9979 9981 9982 9983 9984 9986 9988 9989 9991 9993 9996 9998 10000 10003 10005 10008 10011 10014 10017 10021 10024 10028 10031 10035 10039 10042 10046 10049 10053 10058 10063 10068 10072 10074 10076 10079 10083 10088 10094 10099 10106 10112 10118 10123 10128 10133 10138 10144 10149 10154 10159 10164 10169 10175 10181 10188 10193
9992 9989 9988 9986 9984 9983 9981 9979 9978 9977 9976 9975 9974 9974 9973 9973 9972 9971 9971 9971 9971 9971 9971 9972 9972 9973 9973 9973 9974 9975 9976 9977 9978 9979 9981 9983 9984 9986 9988 9990 9993 9994 9997 9999 10002 10004 10008 10011 10014 10017 10021 10024 10028 10031 10034 10038 10041 10046 10050 10054 10058 10062 10065 10068 10071 10075 10080 10085 10091 10096 10103 10109 10114 10120 10125 10130 10135 10139 10144 10150 10156 10161 10166 10173 10179 10184
9988 9986 9984 9983 9981 9979 9978 9976 9975 9974 9973 9972 9971 9970 9969 9969 9968 9968 9968 9968 9968 9968 9968 9968 9968 9968 9969 9969 9970 9971 9972 9973 9974 9975 9976 9978 9980 9983 9984 9986 9988 9990 9992 9994 9996 9999 10002 10004 10008 10011 10014 10017 10021 10024 10027 10030 10034 10038 10042 10046 10050 10054 10058 10060 10064 10068 10072 10077 10082 10088 10094 10100 10106 10111 10116 10121 10126 10131 10136 10141 10147 10153 10158 10164 10170 10176